Regional Weather Roundup
Issued by NWS Wakefield, VA

Home | Current Version | Previous Version | Text Only | Print | Product List | Glossary On
Versions: 1 2 3 4 5 6 7 8 9 10 11 12 13 14 15 16 17 18 19 20 21 22 23 24 25 26 27 28 29 30 31 32 33 34 35 36 37 38 39 40 41 42 43 44 45 46 47 48 49 50
000
ASUS41 KAKQ 262110
RWRAKQ

REGIONAL WEATHER ROUNDUP
NATIONAL WEATHER SERVICE WAKEFIELD VA
400 PM EST MON JAN 26 2015

Note: "fair" indicates few or no clouds below 12,000 feet with no
significant weather and/or obstructions to visibility. * = Denotes
station may not report precipitation (e.g., rain,snow,etc.),
thunder or fog.

VAZ042-051-052>054-056-262200-
NORTHERN VIRGINIA

CITY           SKY/WX    TMP DP  RH WIND       PRES   REMARKS
WASH NATIONAL  LGT RAIN  35  29  78 N14       29.71F
DULLES         LGT SNOW  31  28  89 N12       29.70F VSB 3/4 WCI  22
FORT BELVOIR   LGT RAIN  32  30  93 VRB3      29.71F
QUANTICO       LGT RAIN  34  30  85 N10       29.70F
FREDERICKSBRG* CLOUDY    35  35 100 N10G16    29.68S
STAFFORD*      CLOUDY    33  32  95 N9        29.72F
WARRENTON      CLOUDY    34  34 100 NE9       29.68F
CULPEPER*      CLOUDY    34  32  93 N8        29.70S
MANASSAS*      CLOUDY    34  34 100 N8        29.70F
LEESBURG*      LGT SNOW  30  30 100 N13       29.73S WCI  20
WINCHESTER     LGT SNOW  30  27  86 N5        29.71F
FRONT ROYAL*   CLOUDY    32  30  93 N5        29.68F
LURAY*         CLOUDY    34  34 100 N12       29.67S
$$

VAZ048-049-060>072-079>083-262200-
CENTRAL AND SOUTH CENTRAL VIRGINIA

CITY           SKY/WX    TMP DP  RH WIND       PRES   REMARKS
RICHMOND       CLOUDY    40  37  89 N15       29.63R
CHESTERFIELD*  CLOUDY    39  28  65 N9        29.63S
PETERSBURG*    CLOUDY    45  39  79 N14       29.62R
HANOVER        CLOUDY    37  35  92 VRB5      29.65S FOG
TAPPAHANNOCK*  CLOUDY    38  34  85 N10G16    29.65R
QUINTON*       CLOUDY    39  36  89 N8G16     29.63R
CHARLOTTSVILLE CLOUDY    35  33  92 NE10      29.66S FOG
GORDONSVILLE*  CLOUDY    33  32  96 NE9       29.66F
ORANGE*        CLOUDY    34  32  93 N13       29.69S WCI  25
LOUISA*        CLOUDY    36  34  93 N10       29.64F FOG
BUMPASS*       CLOUDY    34  33  97 N5        29.66R
FARMVILLE*     CLOUDY    41  41 100 NE12      29.62S
CREWE*         CLOUDY    40  38  93 N5        29.61R
FORT PICKETT*  CLOUDY    42  39  90 N10       29.60S
CHASE CITY*    CLOUDY    44  44  99 N5        29.61S
CLARKSVILLE*   CLOUDY    43  41  93 N8        29.60S
SOUTH HILL*    CLOUDY    45  41  86 NW7       29.64S
LAWRENCEVILLE* CLOUDY    47  41  78 NW7       29.58R
EMPORIA*       CLOUDY    48  37  66 NW9       29.59R
$$

VAZ088>098-262200-
SOUTHEAST VIRGINIA

CITY           SKY/WX    TMP DP  RH WIND       PRES   REMARKS
NORFOLK        CLOUDY    44  39  82 N13       29.56R
VIRGINIA BEACH CLOUDY    45  40  82 N16       29.55R
NORFOLK NAVAL  CLOUDY    49  40  71 N16       29.58R
WEST POINT*    CLOUDY    44  37  77 N8        29.63R
SALUDA*        CLOUDY    39  37  91 N10G20    29.61R
NEWPORT NEWS   CLOUDY    50  40  68 N15       29.58R
LANGLEY AFB    CLOUDY    46  41  81 N13G18    29.57R
FORT EUSTIS    CLOUDY    47  42  81 NE10      29.56R
WILLIAMSBURG*    N/A     50  41  71 N14       29.60R
HR EXEC AP*    CLOUDY    46  39  76 N7        29.59R
FRANKLIN*      CLOUDY    50  38  62 N9        29.57R
WAKEFIELD      CLOUDY    50  38  63 N5        29.58R
$$

VAZ020-022-025-037-045-262200-
WEST CENTRAL AND SOUTHWEST VIRGINIA

CITY           SKY/WX    TMP DP  RH WIND       PRES   REMARKS
STAUNTON*      CLOUDY    35  33  92 N5        29.66S FOG
WAYNESBORO*    CLOUDY    33  33  98 N5        29.63S
HOT SPRINGS VA SNOW      33  33 100 NW3       29.52S VSB<1/4
LYNCHBURG      CLOUDY    37  36  96 NE12      29.63F FOG
DANVILLE       CLOUDY    46  38  73 N10       29.62R
SOUTH BOSTON*  CLOUDY    44  39  85 N8        29.62R
MARTINSVILLE   CLOUDY    46  38  75 CALM      29.64R
ROANOKE        LGT RAIN  42  38  85 N6        29.63R FOG
BLACKSBURG     CLOUDY    37  32  80 W14G20    29.64R
DUBLIN*        CLOUDY    37  31  77 W13G18    29.65R
MARION*        CLOUDY    32  28  83 W18       29.68S WCI  20
HILLSVILLE*    CLOUDY    35  31  86 W12G17    29.61R
RICHLANDS*     LGT SNOW  26  22  87 NW9       29.70R
WISE*          FOG       27  27 100 NW13      29.74R VSB 3/4 WCI  16
ABINGDON*      FLURRIES  32  27  81 NW5       29.73R
$$

MDZ021>025-VAZ099-100-262200-
SOUTHERN MARYLAND AND THE DELMARVA PENINSULA

CITY           SKY/WX    TMP DP  RH WIND       PRES   REMARKS
PATUXENT RIVER DRIZZLE   36  33  89 N14       29.65R FOG
BAY BRIDGE APT   N/A     32  30  93 CALM      29.70R
LEONARDTOWN    CLOUDY    34  32  93 CALM      29.67R
DOVER          LGTSLEET  32  32 100 N18G25    29.69S WCI  21
GEORGETOWN     RAIN      37  34  89 NE18G30   29.63F FOG
EASTON         CLOUDY    37  37 100 NE12G18   29.70R
CAMBRIDGE      CLOUDY    41  36  81 NE8G21    29.63S
SALISBURY      CLOUDY    43  37  79 N17G23    29.60F
OCEAN CITY     HVY RAIN  40  38  93 N14G22    29.59S FOG
WALLOPS ISLAND CLOUDY    45  41  86 N13G23    29.56R
ACCOMACK*      CLOUDY    46  43  87 N8        29.55S
$$

NCZ012>017-030>032-262200-
NORTH CENTRAL AND EASTERN NORTH CAROLINA

CITY           SKY/WX    TMP DP  RH WIND       PRES   REMARKS
ROANOKE RAPIDS CLOUDY    50  41  71 NW8       29.57R
RALEIGH        CLOUDY    48  40  73 VRB5      29.60R
ELIZABETH CITY CLOUDY    48  42  80 N12       29.54R
AHOSKIE*       CLOUDY    50  40  67 N3        29.57R
EDENTON*       CLOUDY    51  45  78 N8        29.55R
CURRITUCK*     CLOUDY    48  41  76 NW9       29.55R
KILL DEVIL HLS CLOUDY    47  45  92 N10       29.50F
MANTEO         CLOUDY    48  45  87 N7        29.51F
CAPE HATTERAS  CLOUDY    48  45  89 NW7       29.52R
TARBORO*       CLOUDY    52  42  67 NW7       29.58R
GOLDSBORO      PTSUNNY   52  50  93 W8        29.55R
WASHINGTON     CLOUDY    49  43  78 NW3       29.55
GREENVILLE     CLOUDY    52  41  66 N3        29.59S
NEW BERN       CLOUDY    55  42  61 NW8       29.54F
WILMINGTON     PTSUNNY   55  42  61 NW14      29.55R
$$

VAZ048-262200-
ELSEWHERE

CITY           SKY/WX    TMP DP  RH WIND       PRES   REMARKS
HARRISBURG PA  FLURRIES  24  18  77 NE8       29.78F
BALTIMORE      CLOUDY    31  27  85 NE10      29.71S WCI  22
ANNAPOLIS      CLOUDY    33  28  81 N10       29.70S WCI  25
ANDREWS AFB    CLOUDY    31  30  94 NE8       29.68S
PHILADELPHIA   FLURRIES  27  21  78 NE24G31   29.78R WCI  12
HENDERSON NC   CLOUDY    44  39  83 N7        29.61R
GREENSBORO     CLOUDY    45  37  73 N3        29.60S
ROCKY MOUNT    CLOUDY    51  40  65 N9        29.57R
$$

VAZ100-262200-
MARINE

STATION/POSITION TIME  TEMP    WIND        PRES    WAVE   SWELL
                       AIR SEA DIR/SP/G            HT/PER HT/PER
                 (UTC) (F)     (DEG/KT/KT) (MB)    (FT/S) (FT/S)
BRANDYWINE LGT   2100   35 38   50/ 31/ 37 1003.1F
CAPE MAY NJ      2100   37 39   40/ 16/ 23 1002.9F
LEWES DE         2100   39 39   50/ 28/ 35 1002.4F
15NM E FENWICK I 2100   42 44               999.6F   9/ 7
OCEAN-CITY-INLET 2100   39 40  350/ 18/ 22 1001.2F
WACHAPREAGUE VA  2100   50 42  340/  5/ 10 1000.5R
THOMAS POINT MD  2100   33 37   30/ 20/ 22 1006.2R
GOOSES REEF MD   2100   35 37  VRB 17/ 21  1003.2F   2/ 3
COVE POINT MD    2100   34     360/ 17/ 20 1003.8R
SOLOMONS ISLAND  2100      39                N/A
BISHOPS HEAD MD  2100   40 40   20/ 10/ 19 1001.7F
PINEY POINT MD   2100          350/ 10/ 13   N/A
POTOMAC MD       2100   38 39  360/ 16/ 19 1002.3R
CAMBRIDGE MD     2100   38 37   30/ 13/ 19 1003.5R
LEWISETTA VA     2100   38 39  350/  9/ 12 1003.3R
RAPPAHANNOCK LGT 2100          330/ 22/ 24 1001.6R
STINGRAY PT      2100   39 40  360/ 19/ 23 1002.6R   3/ 3
YORK RVR RNG VA  2100   43     350/ 18/ 20 1000.8R
YORKTOWN VA      2100   45 41  330/ 14/ 15 1001.5R
JAMESTOWN VA     2100   45 42   20/ 10/ 16   N/A     0
DOMINION TERM VA 2100   47      40/  5/  9 1001.2R
KIPTOPEKE VA     2100      46  350/ 18/ 23   N/A
CHES BAY BRIDGE  2100   42 42  340/ 20/ 23 1000.5R
CAPE HENRY VA    2100   41     340/ 20/ 23  999.3R
CHESAPEAKE LGHT  2000   45     360/ 18/ 19 1000.0F
WILLOUBY STN VA  2100   45     360/ 16/ 19 1001.5R
S CRANEY ISL VA  2100          360/ 11/ 14 1001.0R
CAPE HENRY BUOY  2000      45                N/A     2/10
1ST LANDING BUOY 2100   42 42  340/ 21/ 25 1000.6R   3/ 4
CAPE CHARLES BUO 2100      44                N/A     2/10   2/10
OFFSHORE WE BUOY 2100      47                N/A     3/ 8   2/ 8
64NM E OF VA BCH 2100   52 52  320/ 12/ 16  997.7R   4/ 6   2/ 8
DUCK PIER NC     2100   46 44  350/ 17/ 19  998.6R
44100 DUCK FRF   2100      45                N/A     3/10   2/11
44056 DUCK FRF   2100      44                N/A     3/ 8
OREGON INLET NC  2100   48 47  330/  6/  9  999.0S
HATTERAS NC      2100   49 53  300/  8/  8  999.9R


USA.gov is the U.S. government's official web portal to all federal, state and local government web resources and services.